DELTA 1 DEB, 21296

Orbit data source: Space-Track

DELTA 1 DEB, 21296 is space debris in SSO originally from a launch on Thu, 12 Jun 1975 UTC launched from the Air Force Western Test Range (AFWTR). Debris objects in space refer to the collection of defunct objects orbiting the Earth. Examples of debris include non-operational satellites, rocket bodies, and fragments generated from explosions, collisions, or faulty payload assembly.

Loading next visibility...
Identifier
21296, 1975-052AH
Orbit
SSO
Country
Flag of USUS
Related business
Manufacturer
Unknown
Mission
Spacecraft
Bus & Motor
Unknown
Mass
Unknown
Launch date (UTC)
1975-06-12 (50 years ago)
Launch vehicle
Unknown
Launch site
Air Force Western Test Range (AFWTR)
Object type
Payload
Rocket body
Debris
Shape & HBR
Unknown
Radar Cross Section
Small (<0.1 m²)

Expand to show TLE details & history
Last TLE update: 2 days ago

TLE from 2 days ago
0 DELTA 1 DEB
1 21296U 75052AH  25258.00273955  .00000038  00000-0  19051-3 0  9992
2 21296  99.5776  98.5770 0234980 186.4085 337.8433 13.10577444640242
Epoch: 2025-09-15T00:03Z
TLE epoch observation values (Epoch: 2025-09-15T00:03:56.697Z)
Latitude
16.53723°
Longitude
-73.76597°
Altitude
1,058.245 km
Speed
7.403 km/s
True Right ascension
18h 45m 44s
True Declination
16° 26' 51"
Sunlit
Object was in daylight at epoch
Visualization orbit readout
Latitude
Unknown
Longitude
Unknown
Altitude
Unknown
Speed
Unknown
Apparent Right ascension
Unknown
Apparent Declination
Unknown
Sunlit
N/A
Visualization observer readout
Local Sidereal Time
06:36:18
Azimuth
Unknown
Elevation
Unknown
Doppler factor
Unknown
Orbital elements
Apogee altitude
1,396.772 km
Perigee altitude
1,039.772 km
Semi-major axis
7,596.409 km
Eccentricity
0.0235
Inclination
99.5776°
RAAN
98.577°
Arg. of periapsis
186.4085°
True anomaly
336.79948°
Mean anomaly
337.8433°
Eccentric anomaly
337.32427°
Mean motion
3.27816 °/min
Orbital period
109.82 mins
BSTAR
0.00019051
Loading maneuver chart data...
Computing Atmospheric mass density...
Loading historical data...
Loading historical data...
Loading historical data...
Loading historical data...
Loading historical data...
Loading historical data...
Loading historical data...

Documentation

Showing up to 5 results
|